Temp
78 78 78 77 72 73 71 72 73 72 73 73 75 77 77 79 79 78 79 79 80 79 78 80 78 75 75 79 78 77 77 79 80 78 79 78 78 76 80 81 79 83 84
76 75 77 75 74 76 78 72 74 72 70 75 75 76 77 77 78 77 77 77 77 75 74 73 79 77 75 74 77 77 76 80 80 77 75 73 76 77 79 80 83 83 84
76 74 75 73 79 77 78 76 76 73 70 71 78 74 77 77 78 79 79 77 77 77 76 73 73 76 71 70 71 76 77 76 79 78 73 70 74 76 79 79 81 82 83
77 75 73 73 76 77 79 74 75 71 73 75 75 73 76 76 78 77 77 77 77 77 78 77 75 73 72 69 70 75 76 75 75 77 77 76 75 70 71 79 80 81 81
78 75 74 76 77 77 77 75 72 72 74 75 76 77 75 77 76 77 75 75 76 77 77 77 77 76 75 71 69 70 75 77 75 76 78 75 73 73 69 73 77 79 83
78 77 76 75 76 75 76 75 72 72 75 76 75 74 73 74 75 75 75 76 77 78 76 76 76 77 77 75 73 74 76 76 76 77 79 77 73 72 71 70 74 79 82
79 75 73 73 74 75 77 77 75 74 77 76 75 75 74 74 73 73 75 74 76 77 75 75 74 77 76 76 75 76 76 76 76 76 79 80 79 75 75 73 77 77 81
77 76 75 76 76 76 76 77 76 76 76 77 75 75 75 77 76 75 75 75 74 75 76 76 77 77 75 74 73 77 75 75 75 76 76 78 75 72 70 73 69 71 75
77 76 77 76 77 77 76 78 77 77 77 77 76 75 75 75 74 74 75 76 73 74 76 77 76 78 77 76 75 76 74 74 74 75 75 75 73 68 74 75 75 70 72
76 75 76 76 78 79 78 79 79 77 77 77 77 76 76 75 75 75 74 74 73 70 73 73 75 76 76 76 74 72 73 72 71 72 72 74 77 76 74 72 76 76 71
76 75 76 77 77 80 79 79 78 78 77 77 76 76 76 76 75 75 75 74 73 73 72 70 70 71 74 75 72 71 71 70 71 71 70 72 73 75 75 75 74 72 72
74 76 76 75 77 79 80 79 79 79 79 78 77 76 77 77 76 75 74 75 73 73 73 69 67 68 70 71 72 71 71 70 70 71 69 70 72 71 72 71 70 66 66
73 75 74 68 72 77 78 79 79 79 80 78 78 77 77 77 75 74 73 74 73 73 73 72 70 69 68 67 66 66 64 63 65 68 69 68 69 67 66 66 66 66 66
73 75 72 72 75 77 77 79 79 80 80 79 78 77 76 76 76 74 72 73 73 73 73 72 72 71 71 71 69 67 65 62 62 62 62 62 62 63 63 63 63 64 64
73 73 73 73 74 75 76 77 79 78 79 77 78 77 77 76 74 70 71 72 71 71 71 72 71 72 70 68 67 67 67 62 60 59 60 61 62 62 62 61 60 62 63
72 73 73 73 74 74 75 75 76 77 77 77 78 78 76 75 73 67 71 71 70 69 70 69 70 69 69 58 61 66 65 63 62 60 59 57 57 59 59 60 60 59 60
71 71 70 68 67 70 69 68 68 71 74 75 77 76 76 74 70 67 70 69 67 66 65 66 68 66 65 57 58 62 67 64 62 62 61 61 59 58 59 59 59 59 59
67 65 63 64 65 66 67 67 68 70 68 67 72 75 74 72 67 69 68 67 68 65 63 62 62 64 61 55 55 60 66 66 65 64 65 65 64 63 64 64 63 62 63
64 62 64 63 61 64 63 66 68 69 67 65 65 68 70 68 66 66 65 66 66 65 63 61 61 62 61 53 54 63 66 64 64 65 66 66 64 55 58 65 62 62 62
60 60 62 61 60 59 61 62 62 64 61 61 60 61 67 65 64 63 62 64 66 65 65 60 60 57 60 50 52 62 68 64 65 64 62 53 59 51 53 65 64 61 62
59 61 62 60 58 59 60 58 57 55 56 57 57 57 58 58 58 59 62 62 62 61 56 57 58 57 57 55 50 53 62 62 61 62 60 59 50 48 49 52 60 57 60
59 61 58 57 57 58 59 55 54 55 55 55 55 54 53 53 53 54 55 55 59 58 56 54 50 55 53 51 49 50 52 56 55 55 55 53 46 45 47 51 48 51 59
59 61 58 56 56 57 58 55 54 55 54 53 52 52 52 52 52 52 52 51 53 52 51 49 49 49 51 52 48 49 50 52 54 53 51 49 47 48 52 49 51 55 65
59 61 60 57 54 56 56 55 54 53 53 51 51 52 51 51 51 51 52 52 50 49 48 49 49 50 51 52 53 53 53 53 58 56 60 54 53 52 57 60 61 63 63
60 61 58 56 54 55 55 57 55 56 53 53 52 51 50 49 46 44 47 48 49 50 49 50 52 53 52 52 49 52 52 54 53 59 62 62 61 61 61 60 61 62 62
60 57 56 56 55 56 57 57 56 56 57 56 55 54 52 50 49 48 45 45 43 42 42 43 50 50 46 42 41 41 41 43 45 60 60 59 59 58 59 59 59 60 58
MSLP
1011.74 1012.02 1012.44 1012.71 1012.83 1012.78 1012.96 1013.64 1013.22 1014.72 1016.37 1015.50 1015.57 1015.58 1015.52 1015.72 1015.78 1015.88 1016.05 1016.13 1016.11 1016.07 1016.22 1016.27 1016.50 1016.72 1016.93 1016.78 1017.15 1017.44 1017.70 1017.60 1017.84 1017.77 1017.67 1017.77 1017.90 1017.98 1017.82 1017.74 1017.94 1017.85 1018.10
1011.67 1012.11 1012.24 1012.19 1012.04 1012.50 1012.49 1013.35 1013.31 1014.11 1015.46 1015.42 1015.61 1015.75 1015.61 1015.65 1015.77 1015.77 1015.75 1015.86 1015.87 1015.84 1015.84 1016.03 1015.98 1016.14 1016.49 1016.51 1016.83 1017.17 1017.33 1017.26 1017.53 1017.41 1017.57 1017.18 1017.24 1017.39 1017.44 1017.62 1017.47 1017.56 1017.63
1011.36 1011.64 1011.73 1011.54 1012.28 1012.54 1013.14 1013.10 1013.54 1013.77 1014.74 1014.66 1015.20 1015.45 1015.61 1015.71 1015.63 1015.57 1015.50 1015.50 1015.46 1015.35 1015.43 1015.61 1015.67 1015.82 1016.18 1016.09 1016.63 1016.94 1017.04 1016.88 1017.11 1017.35 1017.38 1017.18 1016.49 1016.68 1016.93 1017.06 1017.17 1017.12 1017.29
1010.72 1011.15 1011.45 1011.73 1012.14 1012.62 1012.59 1013.20 1013.63 1014.38 1014.77 1014.90 1015.03 1015.29 1015.37 1015.49 1015.66 1015.58 1015.44 1015.12 1015.03 1014.90 1014.86 1014.87 1015.06 1015.44 1015.71 1015.80 1016.23 1016.68 1016.77 1016.91 1016.65 1016.98 1017.16 1017.21 1017.15 1016.87 1016.65 1016.61 1016.62 1016.90 1016.94
1010.23 1010.69 1010.96 1011.50 1012.18 1012.38 1012.60 1012.98 1013.85 1014.46 1014.56 1014.82 1014.84 1015.16 1015.52 1015.57 1015.72 1015.37 1015.22 1015.11 1014.84 1014.50 1014.36 1014.48 1014.52 1014.88 1015.04 1015.30 1015.69 1016.19 1016.38 1016.34 1016.40 1016.36 1016.36 1016.75 1017.00 1017.16 1017.18 1016.34 1016.27 1016.57 1016.50
1009.81 1010.51 1011.07 1011.64 1012.01 1012.23 1012.51 1012.91 1013.59 1014.17 1014.48 1014.68 1014.93 1015.31 1015.57 1015.56 1015.45 1015.22 1015.06 1014.86 1014.44 1014.15 1014.24 1014.22 1014.21 1014.18 1014.35 1014.55 1015.05 1015.50 1015.76 1015.88 1015.99 1016.00 1015.98 1016.13 1016.42 1016.63 1016.87 1016.70 1016.47 1016.18 1016.03
1009.58 1010.33 1011.11 1011.74 1012.04 1012.38 1012.49 1012.82 1013.50 1013.86 1014.28 1014.77 1015.01 1015.25 1015.36 1015.64 1015.81 1015.35 1015.14 1014.83 1014.40 1014.16 1014.19 1014.06 1014.03 1013.95 1013.98 1014.14 1014.54 1015.00 1015.22 1015.39 1015.51 1015.70 1015.67 1015.95 1016.09 1016.58 1016.72 1016.80 1016.49 1016.24 1016.05
1009.56 1010.26 1010.79 1011.26 1011.84 1012.44 1012.77 1012.95 1013.38 1013.78 1014.19 1014.57 1014.97 1015.28 1015.41 1015.63 1015.71 1015.51 1015.13 1014.98 1014.74 1014.50 1014.27 1014.02 1013.87 1013.75 1013.77 1014.11 1014.42 1014.76 1014.96 1015.13 1015.31 1015.43 1015.67 1015.86 1016.21 1016.50 1016.76 1016.57 1016.69 1016.46 1016.06
1009.42 1010.07 1010.81 1011.40 1011.66 1012.39 1012.90 1012.97 1013.49 1013.74 1014.08 1014.72 1014.96 1015.30 1015.62 1015.73 1015.52 1015.55 1015.19 1014.99 1014.99 1014.72 1014.36 1014.11 1013.85 1013.83 1014.02 1014.13 1014.32 1014.42 1014.62 1014.95 1015.13 1015.31 1015.61 1015.87 1016.12 1016.26 1016.38 1016.54 1016.30 1016.21 1015.88
1009.74 1010.52 1011.13 1011.62 1011.81 1012.35 1012.92 1013.11 1013.48 1013.97 1014.21 1014.73 1015.00 1015.33 1015.63 1015.60 1015.60 1015.53 1015.30 1015.22 1015.26 1015.03 1014.61 1014.39 1014.26 1014.16 1014.06 1014.07 1014.27 1014.55 1014.66 1014.90 1015.23 1015.44 1015.61 1015.75 1015.81 1015.99 1016.25 1016.40 1016.19 1016.01 1016.13
1010.19 1011.02 1011.49 1011.71 1012.37 1012.23 1012.77 1013.25 1013.69 1014.08 1014.32 1014.61 1015.00 1015.41 1015.56 1015.64 1015.51 1015.55 1015.49 1015.38 1015.35 1015.17 1014.89 1014.83 1014.82 1014.65 1014.32 1014.21 1014.47 1014.74 1014.86 1015.09 1015.26 1015.51 1015.68 1015.65 1015.81 1015.85 1015.96 1016.13 1016.26 1016.30 1016.37
1010.59 1011.12 1011.88 1012.17 1012.00 1012.82 1012.84 1013.21 1013.88 1013.85 1013.98 1014.49 1015.03 1015.32 1015.50 1015.69 1015.58 1015.67 1015.66 1015.56 1015.58 1015.41 1015.29 1015.28 1015.21 1015.08 1014.94 1014.81 1014.70 1014.85 1015.03 1015.17 1015.31 1015.47 1015.68 1015.72 1015.81 1015.90 1016.02 1016.13 1016.34 1016.67 1016.77
1010.79 1011.30 1011.87 1012.26 1012.81 1012.84 1012.93 1013.18 1013.72 1013.66 1013.96 1014.44 1014.77 1014.99 1015.09 1015.52 1015.62 1015.98 1016.02 1015.89 1015.83 1015.75 1015.73 1015.65 1015.51 1015.49 1015.51 1015.49 1015.53 1015.64 1015.86 1015.95 1016.00 1015.89 1015.92 1016.04 1016.03 1016.12 1016.26 1016.32 1016.36 1016.64 1016.63
1010.97 1011.26 1011.54 1012.04 1012.26 1012.63 1012.91 1013.34 1013.50 1013.78 1013.83 1014.15 1014.30 1014.69 1015.01 1015.61 1015.93 1016.17 1016.30 1016.26 1016.31 1016.18 1016.12 1016.18 1016.03 1016.06 1015.97 1015.96 1016.11 1016.30 1016.51 1016.64 1016.66 1016.46 1016.65 1016.70 1016.81 1016.44 1016.73 1016.93 1016.88 1016.83 1016.81
1011.15 1011.56 1011.98 1012.43 1012.67 1012.92 1013.10 1013.49 1013.67 1013.90 1014.00 1014.25 1014.33 1014.62 1015.17 1015.75 1016.12 1016.58 1016.62 1016.69 1016.71 1016.75 1016.63 1016.67 1016.66 1016.66 1016.74 1016.87 1016.90 1017.00 1017.10 1017.37 1017.53 1017.62 1017.62 1017.69 1017.71 1017.50 1017.48 1017.48 1017.49 1017.32 1017.44
1011.12 1011.95 1012.44 1012.79 1013.09 1013.38 1013.73 1013.92 1014.09 1014.30 1014.43 1014.43 1014.36 1014.49 1015.13 1015.62 1016.19 1016.83 1016.87 1017.03 1016.95 1016.99 1017.12 1017.22 1017.24 1017.30 1017.56 1017.77 1017.59 1017.58 1017.80 1017.95 1018.06 1018.24 1018.51 1018.56 1018.65 1018.66 1018.53 1018.44 1018.34 1018.26 1018.24
1011.25 1012.15 1012.79 1013.39 1013.94 1014.20 1014.47 1014.97 1015.17 1015.25 1015.03 1014.78 1014.70 1014.71 1015.01 1015.46 1016.14 1016.83 1016.97 1017.23 1017.39 1017.54 1017.58 1017.71 1017.87 1018.08 1018.32 1018.42 1018.33 1018.29 1018.32 1018.46 1018.67 1018.80 1018.94 1019.07 1019.24 1019.23 1019.32 1019.25 1019.01 1018.98 1018.97
1011.83 1012.59 1013.39 1014.14 1014.71 1015.09 1015.60 1015.88 1015.69 1015.47 1015.48 1015.29 1015.08 1014.74 1015.01 1015.51 1016.30 1016.81 1017.27 1017.52 1017.65 1017.86 1018.08 1018.36 1018.54 1018.67 1019.20 1019.21 1019.06 1018.89 1018.79 1018.92 1019.15 1019.31 1019.36 1019.46 1019.68 1019.89 1019.76 1019.66 1019.68 1019.78 1019.95
1012.65 1013.42 1014.26 1014.94 1015.52 1015.54 1016.33 1016.32 1015.68 1015.76 1015.91 1015.88 1015.59 1015.21 1015.13 1015.78 1016.38 1016.88 1017.58 1017.83 1017.97 1018.28 1018.68 1018.97 1019.18 1019.26 1019.65 1019.79 1019.60 1019.23 1019.32 1019.60 1019.73 1019.91 1020.02 1020.13 1020.48 1020.84 1020.59 1020.19 1020.32 1020.55 1020.74
1013.59 1014.26 1015.07 1015.67 1015.92 1016.42 1016.76 1016.70 1016.54 1016.65 1016.79 1016.69 1016.40 1015.92 1015.41 1015.82 1016.41 1017.13 1017.93 1018.28 1018.34 1018.57 1018.92 1019.50 1019.85 1020.06 1020.11 1020.33 1020.03 1019.56 1019.44 1019.84 1020.17 1020.49 1020.93 1021.28 1021.38 1021.38 1021.26 1020.84 1020.73 1020.84 1021.11
1014.25 1014.95 1015.62 1016.15 1016.62 1017.04 1017.23 1017.41 1017.49 1017.72 1017.72 1017.33 1016.87 1016.52 1016.45 1016.65 1016.90 1017.65 1018.10 1018.43 1018.61 1019.10 1019.41 1019.72 1020.42 1020.71 1020.68 1020.76 1020.79 1020.52 1020.30 1020.42 1020.56 1020.94 1021.54 1022.06 1022.14 1022.04 1021.78 1021.45 1021.69 1021.72 1021.77
1015.29 1015.97 1016.47 1016.81 1017.12 1017.48 1017.64 1017.95 1018.15 1018.15 1017.83 1017.68 1017.62 1017.59 1017.56 1017.60 1017.94 1018.31 1018.77 1019.11 1019.06 1019.50 1020.02 1020.39 1020.79 1020.96 1021.10 1021.26 1021.41 1021.23 1021.18 1021.35 1021.50 1021.89 1022.48 1022.97 1022.85 1022.85 1022.60 1022.26 1022.55 1022.28 1021.65
1015.71 1016.16 1016.72 1017.09 1017.50 1017.79 1017.86 1017.96 1018.32 1018.22 1018.03 1018.17 1018.29 1018.45 1018.49 1018.51 1018.66 1018.90 1019.28 1019.68 1019.84 1020.23 1020.85 1020.69 1021.35 1021.64 1021.46 1021.75 1021.55 1021.74 1021.66 1021.89 1022.25 1022.72 1023.12 1023.38 1023.12 1022.99 1022.79 1023.01 1022.73 1022.08 1021.96
1015.88 1016.34 1016.67 1017.18 1017.70 1017.91 1018.03 1018.16 1018.29 1018.39 1018.31 1018.55 1018.79 1019.05 1019.26 1019.45 1019.54 1019.70 1020.06 1020.22 1020.41 1020.71 1021.06 1021.58 1021.75 1021.85 1022.08 1022.45 1022.63 1022.53 1022.63 1022.52 1022.69 1023.03 1022.91 1023.42 1023.41 1023.23 1023.11 1022.91 1022.71 1022.58 1022.64
1015.86 1016.32 1016.68 1017.17 1017.62 1017.83 1018.03 1018.35 1018.43 1018.36 1018.67 1018.93 1019.37 1019.65 1020.03 1020.08 1020.49 1020.92 1021.09 1021.19 1021.46 1021.39 1021.49 1021.90 1021.94 1022.08 1022.75 1023.01 1023.10 1022.82 1023.18 1023.25 1023.19 1023.12 1023.34 1023.27 1023.27 1023.12 1023.05 1023.24 1023.23 1023.15 1023.18
1015.90 1016.42 1016.92 1017.31 1017.75 1017.98 1018.12 1018.34 1018.57 1018.68 1018.80 1019.13 1019.68 1020.01 1020.21 1020.52 1020.94 1021.23 1021.75 1021.90 1022.37 1021.98 1022.20 1022.20 1022.30 1022.86 1023.28 1023.35 1023.38 1023.46 1023.79 1023.67 1023.76 1023.16 1023.10 1023.33 1023.38 1023.23 1023.26 1023.34 1023.41 1023.58 1023.67
Wind_Speed
8 8 11 16 13 11 12 10 10 9 3 3 2 2 4 4 4 4 7 8 8 9 10 8 9 7 8 11 10 8 10 8 6 5 6 7 6 7 7 6 7 9 10
7 7 10 14 14 14 14 6 8 12 5 2 2 1 2 1 3 1 3 5 8 8 8 8 10 9 8 9 9 10 8 8 6 5 3 4 5 6 7 6 7 9 8
9 10 11 11 7 2 5 8 7 10 3 2 1 2 1 2 3 2 3 3 5 6 8 9 7 9 7 6 6 9 12 9 7 9 4 3 5 2 4 9 7 8 7
11 10 11 10 8 5 3 10 9 8 4 3 3 1 1 3 2 4 5 5 6 8 9 9 9 9 7 6 5 9 9 9 9 6 7 5 2 2 2 4 6 7 7
12 15 13 9 7 3 5 9 8 5 3 3 4 2 1 1 3 4 7 5 4 5 8 9 9 9 8 7 9 9 10 9 8 8 5 7 5 3 2 1 3 5 7
12 10 8 5 5 4 6 9 9 7 3 4 5 4 2 4 4 5 5 5 4 3 4 8 9 9 7 9 10 11 13 10 9 7 7 5 3 4 4 3 2 3 2
11 9 8 8 5 5 5 7 6 6 5 6 5 4 5 5 4 4 5 7 5 5 5 4 6 7 8 7 5 7 8 10 9 10 8 8 8 3 4 4 7 5 2
9 11 11 9 7 5 5 4 4 5 6 6 5 4 5 3 3 4 5 5 6 5 5 3 3 3 4 4 5 6 7 8 8 10 7 6 6 3 2 3 4 5 5
11 11 10 8 9 6 4 6 6 7 7 5 4 4 3 2 4 5 5 6 7 5 5 5 3 2 4 5 6 6 7 7 7 7 7 6 4 4 5 6 5 5 8
9 7 6 8 8 6 5 7 6 7 7 6 4 3 1 3 4 4 6 7 7 7 6 6 5 4 4 5 6 4 5 4 3 4 5 6 5 7 7 6 6 6 5
8 8 5 5 3 7 6 5 6 7 6 5 4 3 1 1 3 4 5 6 6 6 6 6 5 6 4 3 3 3 3 4 4 4 5 7 6 6 6 6 4 4 2
9 8 7 8 9 5 8 8 7 6 6 5 4 4 2 2 3 4 5 5 5 6 7 6 6 6 6 5 5 3 1 2 3 3 5 5 3 6 6 5 5 3 2
11 11 10 7 8 7 7 7 6 5 6 6 5 4 3 2 3 3 4 5 6 7 8 8 9 8 8 8 8 8 8 7 7 6 4 4 2 2 1 1 4 2 2
13 12 9 9 10 7 6 6 5 6 6 6 6 5 4 3 2 3 4 6 6 7 9 9 10 10 9 9 8 9 9 9 8 9 8 8 6 6 5 4 5 2 3
14 12 7 9 8 7 5 4 5 5 5 6 7 6 5 4 4 4 5 6 6 6 7 8 9 9 9 7 9 9 10 10 9 9 9 10 13 17 12 4 5 5 3
13 11 9 9 7 6 3 1 2 5 6 8 9 7 7 7 6 5 5 6 7 8 8 8 9 9 7 9 10 8 8 8 8 8 9 7 11 14 16 16 17 10 2
13 11 9 7 6 5 4 1 2 4 5 7 9 8 8 10 9 7 7 6 7 7 8 8 9 9 9 10 12 10 9 9 9 8 8 8 8 9 10 14 16 19 20
13 12 10 9 7 6 3 2 2 1 3 4 7 9 10 11 10 9 7 7 7 7 7 7 7 8 7 10 10 9 10 10 11 10 10 10 11 10 11 13 15 16 15
10 10 9 8 7 6 2 2 2 3 4 4 5 6 9 10 10 10 8 6 7 7 6 6 7 8 8 7 5 8 10 11 11 10 10 10 10 8 6 11 12 12 13
11 11 10 8 7 5 2 2 3 2 3 5 5 7 6 9 10 10 9 6 7 8 8 8 8 8 8 6 5 6 8 10 9 10 12 15 10 9 8 8 8 11 9
12 10 8 7 7 4 4 3 3 2 3 4 5 6 7 6 8 9 8 8 9 9 7 9 7 8 6 7 6 6 8 7 7 7 7 7 11 11 11 9 8 8 8
11 9 9 8 6 4 5 5 4 2 3 5 6 7 7 6 6 8 8 6 9 9 9 9 6 7 6 8 9 12 11 9 7 7 6 7 13 12 11 9 8 6 5
9 9 9 8 6 5 5 6 3 4 6 7 7 7 7 7 7 8 7 6 6 6 5 6 4 4 5 6 12 12 13 12 9 6 8 9 9 7 11 11 7 4 5
9 8 9 9 7 6 6 6 5 6 8 8 7 7 6 7 7 5 3 4 5 5 6 4 4 5 6 6 5 6 7 10 10 10 7 9 10 10 7 6 7 7 6
8 8 8 7 7 6 7 5 6 7 8 8 7 7 6 8 8 7 5 4 4 3 5 4 4 6 5 4 4 6 4 3 6 7 5 5 5 6 6 6 6 5 5
9 8 8 7 6 6 6 6 5 6 7 8 6 6 6 7 6 7 7 17 10 11 10 8 6 5 7 6 8 9 8 8 5 4 4 4 4 5 5 4 4 4 4
Wind_Direction
101 115 140 144 158 181 148 188 139 125 281 104 123 211 236 246 236 245 258 262 255 249 240 237 244 224 229 232 221 226 240 242 241 260 255 250 246 239 233 228 223 234 229
138 142 173 188 185 180 194 164 162 137 184 142 113 273 344 347 293 230 263 263 261 249 236 234 239 233 231 238 229 221 235 243 225 238 245 260 212 215 220 219 227 224 227
180 179 201 213 189 225 216 150 161 132 144 140 67 74 263 230 251 301 286 249 258 261 238 230 239 236 214 198 221 232 224 234 215 216 247 214 233 210 182 215 225 231 230
195 194 210 219 212 249 101 108 119 112 112 113 88 106 330 312 321 304 298 300 287 268 253 245 233 228 216 201 215 235 220 225 219 197 221 238 299 273 216 205 221 230 235
187 197 207 210 202 163 76 89 98 144 128 156 124 132 227 306 319 328 324 312 298 283 263 249 236 223 214 200 183 225 219 220 231 216 199 219 225 195 258 272 194 218 235
186 193 211 200 189 152 124 101 97 96 65 113 109 134 85 27 357 354 337 327 336 343 296 256 233 224 213 206 202 208 221 214 221 226 222 220 218 218 223 239 273 285 218
181 180 196 193 179 171 153 116 129 137 124 134 124 93 67 32 343 352 352 337 342 343 341 287 232 223 222 221 201 220 225 215 218 217 224 237 244 257 254 258 275 274 278
174 186 196 191 184 177 165 154 145 157 142 129 112 90 72 13 341 358 1 347 337 327 329 312 268 245 232 189 185 226 229 221 221 221 222 236 233 205 227 249 236 258 249
177 186 185 201 177 171 170 157 153 146 141 145 120 99 78 357 12 6 5 2 348 335 346 340 327 289 239 235 217 218 216 220 222 226 222 229 230 203 246 241 234 224 265
143 137 164 185 179 160 164 145 143 152 150 151 126 114 100 22 11 3 14 18 9 4 20 7 343 283 242 227 209 213 218 206 204 232 232 232 229 219 217 226 239 239 234
115 125 147 133 159 149 142 133 143 168 158 153 122 130 61 28 44 28 18 27 17 17 35 32 14 350 315 267 163 193 200 209 223 228 246 247 229 225 221 223 225 220 226
113 119 133 117 122 168 149 150 183 171 160 154 163 165 159 350 51 41 36 35 33 36 37 58 49 44 37 22 22 61 112 189 230 242 239 250 226 214 208 203 181 194 221
146 141 138 137 154 178 164 152 183 164 172 174 192 184 183 239 79 55 65 57 57 56 53 52 55 57 56 59 58 65 64 52 46 37 43 26 302 164 132 178 177 188 195
160 161 154 162 157 168 171 182 169 200 181 196 201 215 205 234 149 116 99 84 75 77 72 61 64 58 59 64 72 73 71 65 59 62 61 57 54 50 58 48 27 360 113
164 168 172 167 155 164 158 199 204 214 216 219 220 220 198 195 156 133 124 106 94 79 74 72 66 64 55 53 76 71 77 74 67 55 56 59 65 64 64 63 32 35 60
166 174 160 151 144 143 162 222 244 243 229 233 231 214 195 178 175 157 144 126 109 95 81 75 73 67 62 50 62 82 83 76 75 73 67 58 60 62 69 71 67 56 31
155 154 140 134 120 98 70 39 354 301 271 243 235 213 197 185 171 164 156 142 119 103 92 82 78 73 72 56 64 61 76 76 67 67 71 72 72 73 75 65 62 58 56
150 138 125 120 104 85 62 216 210 336 288 276 261 212 201 185 161 166 163 145 134 124 108 94 88 88 69 65 73 83 90 83 76 75 79 76 75 68 85 81 74 66 59
124 111 112 112 106 100 94 271 47 302 305 321 321 305 180 171 162 165 163 146 132 121 107 97 98 97 92 72 62 100 98 91 82 75 69 81 82 59 44 91 91 87 86
117 118 118 113 97 70 69 58 57 357 340 333 326 302 181 165 159 146 151 134 125 119 120 99 87 88 96 57 71 113 114 108 101 92 80 58 70 56 24 91 100 93 84
118 119 121 112 110 129 129 114 100 53 334 0 22 39 52 92 120 127 141 139 132 122 104 101 83 74 69 72 51 74 104 111 96 85 75 62 58 60 60 60 86 91 104
130 133 129 120 113 117 132 126 100 68 56 56 60 64 72 84 96 109 111 119 130 126 123 117 105 93 78 63 70 76 78 85 98 94 91 83 69 58 52 70 72 93 127
135 137 134 121 115 122 128 120 96 84 78 73 67 63 74 86 90 97 96 86 84 101 103 106 92 92 83 90 90 91 92 84 95 94 98 87 84 101 83 53 52 89 79
142 139 133 123 115 105 95 93 91 87 87 81 73 72 72 74 70 72 66 105 113 121 116 104 109 112 106 101 91 90 87 107 111 125 91 85 88 77 82 93 76 68 65
133 128 121 117 110 102 88 88 92 98 94 94 94 90 86 88 78 58 42 56 43 88 122 120 130 125 122 114 103 111 106 117 99 129 136 111 104 91 84 77 75 85 85
130 119 113 114 107 107 102 92 99 113 121 113 110 106 108 100 104 103 86 56 60 70 72 70 102 73 84 117 97 89 91 105 170 150 130 118 100 86 76 78 90 84 93